Regional Weather Roundup
Issued by NWS

Home | Current Version | Previous Version | Text Only | Print | Product List | Glossary Off
Versions: 1 2 3 4 5 6 7 8 9 10 11 12 13 14 15 16 17 18 19 20 21 22 23 24 25 26 27 28 29 30 31 32 33 34 35 36 37 38 39 40 41 42 43 44 45 46 47 48 49 50

000
ASUS44 KMEG 101710
RWRTN
TENNESSEE HOURLY STATE WEATHER ROUNDUP
NATIONAL WEATHER SERVICE MEMPHIS TN
1100 AM CST SAT DEC 10 2016

TNZ002-004-019-021-049-052-054-088>092-101800-
WEST TENNESSEE

CITY           SKY/WX    TMP DP  RH WIND       PRES   REMARKS
MEMPHIS INTL   MOSUNNY   39  19  44 VRB5      30.57S
NWS MEMPHIS      N/A     37 N/A N/A MISG        N/A
JACKSON        SUNNY     36  20  52 VRB3      30.58F
DYERSBURG      SUNNY     34  21  60 SE5       30.58F WCI  30
UNION CITY     SUNNY     34  19  55 CALM      30.56F
PARIS          SUNNY     30  18  59 CALM      30.58F
HUNTINGDON     SUNNY     34  19  55 VRB5      30.57F WCI  30
LEXINGTON      SUNNY     36  18  48 VRB5      30.57F WCI  32
$$

TNZ008-025-027-028-033-062-065-066-101800-
NORTH MIDDLE TENNESSEE

CITY           SKY/WX    TMP DP  RH WIND       PRES   REMARKS
NASHVILLE      PTSUNNY   35  15  44 VRB5      30.59F WCI  31
PORTLAND       SUNNY     32  16  51 CALM      30.57F
CLARKSVILLE    SUNNY     33  17  51 VRB6      30.59F WCI  28
SMYRNA         SUNNY     34  17  50 VRB5      30.60F WCI  30
GALLATIN       SUNNY     32  16  51 CALM      30.62F
CROSSVILLE     SUNNY     30  15  53 N3        30.51F
$$

TNZ061-075-076-078-094-096-097-101800-
SOUTH MIDDLE TENNESSEE

CITY           SKY/WX    TMP DP  RH WIND       PRES   REMARKS
FAYETTEVILLE   SUNNY     36  19  51 VRB6      30.54F WCI  31
TULLAHOMA      SUNNY     34  16  47 VRB3      30.54F
WINCHESTER     SUNNY     34  16  47 N7        30.55F WCI  28
MCMINNVILLE    SUNNY     32  18  55 N5          N/A  WCI  27
COLUMBIA       SUNNY     34  21  60 E7        30.55F WCI  28
SHELBYVILLE    SUNNY     36  19  51 NE5       30.57F WCI  32
$$

TNZ017-018-042-046-047-101800-
NORTHEAST TENNESSEE

CITY           SKY/WX    TMP DP  RH WIND       PRES   REMARKS
TRI CITIES     MOSUNNY   30  17  58 S5        30.51F WCI  25
ELIZABETHTON   SUNNY     32  16  51 VRB3      30.51F
$$

TNZ012-013-036-069-073-074-101800-
CENTRAL EAST TENNESSEE

CITY           SKY/WX    TMP DP  RH WIND       PRES   REMARKS
KNOXVILLE      MOSUNNY   33  17  51 E5        30.56F WCI  29
OAK RIDGE      SUNNY     34  13  41 CALM      30.57F
DOWNTOWN KNOXV SUNNY     34  18  51 CALM      30.56F
GATLINBURG     SUNNY     34  18  51 CALM      30.54F
MORRISTOWN     SUNNY     32  16  51 CALM      30.51F
JACKSBORO      SUNNY     34  16  47 CALM      30.56F
$$

TNZ083-085-099-101800-
SOUTHEAST TENNESSEE

CITY           SKY/WX    TMP DP  RH WIND       PRES   REMARKS
CHATTANOOGA    MOSUNNY   37  18  46 VRB3      30.57F
$$

SKY/WX REPORTED AS FAIR MEANS FEW OR NO CLOUDS BELOW
12 THOUSAND FEET.





USA.gov is the U.S. government's official web portal to all federal, state and local government web resources and services.